Current weather by "City, St" or "zip code"  
 

Current Conditions: San Marcos, San Marcos Municipal Airport, TX

Fair


40.0 F

Last Updated on Oct 31 2020, 2:56 am CDT
Humidity: 83%
Wind Speed: NW 6.9 mph
Barometer 30.23 in
Dewpoint: 35.1 F
Visibility: 10.00 mi
Precip: --
Heat Index: NA
Wind Chill: 35 F
Current conditions at:

San Marcos, San Marcos Municipal Airport, TX (KHYI)

Lat: 29.89361 Lon: 97.86472

Local Radar Image active severe weather and emergency alerts image image weather storm and storm spotter reports image weather observation monitoring service image
Local
Radar
Active
Alerts
Storm Reports Obs
Monitoring

Sign-up For Email & Text Message Weather Alert Notification Services



Advertise Here

Observation History for San Marcos, San Marcos Municipal Airport, TX


Time Wind
(mph)
Vis
(mi)
Weather Precip (in) Temperature (F) Relative
Humidity
Wind
Chill
(F)
Heat
Index
(F)
Pressure
Air Dwpt altimeter
(in)
sea level
(mb)
Rmks
2:56 am CDT NW 6.9 10.00 Fair -- 40.0 35.1 83% 35 NA 30.23 1023.1
1:56 am CDT NW 6.9 10.00 Fair -- 41.0 34.0 76% 36 NA 30.23 1023.4
12:56 am CDT NW 5.8 10.00 Fair -- 41.0 34.0 76% 37 NA 30.24 1023.5
11:56 pm CDT NW 4.6 10.00 Fair -- 43.0 35.1 74% 40 NA 30.24 1023.8
10:56 pm CDT N 0.0 10.00 Fair -- 47.0 36.0 66% NA NA 30.24 1023.6
9:56 pm CDT N 0.0 10.00 Fair -- 48.0 33.1 56% NA NA 30.23 1023.3
8:56 pm CDT N 0.0 10.00 Fair -- 53.0 32.0 45% NA NA 30.22 1023.2
7:56 pm CDT N 6.9 10.00 Fair -- 56.0 34.0 44% 54 NA 30.21 1022.9
6:56 pm CDT N 5.8 10.00 Fair -- 62.0 33.1 34% 62 NA 30.20 1022.3
5:56 pm CDT NE 5.8 10.00 Fair -- 69.0 32.0 25% NA NA 30.20 1022.3
4:56 pm CDT 3.5 10.00 Fair -- 70.0 32.0 25% NA NA 30.21 1022.6
3:56 pm CDT N 5.8 10.00 Fair -- 71.0 33.1 25% NA NA 30.22 1022.9
2:56 pm CDT N 0.0 10.00 Fair -- 70.0 33.1 26% NA NA 30.25 1023.8
1:56 pm CDT N 0.0 10.00 Fair -- 69.0 33.1 26% NA NA 30.28 1025.0
12:56 pm CDT NE 8.1 10.00 Fair -- 66.0 37.9 36% NA NA 30.32 1026.4
11:56 am CDT NE 9.2 10.00 Fair -- 62.0 39.9 44% 61 NA 30.35 1027.4
10:56 am CDT NE 9.2 10.00 Fair -- 59.0 42.1 54% 57 NA 30.36 1027.8
9:56 am CDT N 9.2 10.00 Fair -- 56.0 42.1 60% 54 NA 30.35 1027.6
8:56 am CDT N 5.8 10.00 Fair -- 49.0 41.0 74% 47 NA 30.34 1027.2
7:56 am CDT N 6.9 10.00 Fair -- 43.0 39.0 86% 39 NA 30.32 1026.4
6:56 am CDT N 10.4 10.00 Fair -- 44.0 39.9 85% 38 NA 30.30 1025.6
5:56 am CDT N 9.2 10.00 Fair -- 44.0 39.9 85% 39 NA 30.27 1024.7
4:56 am CDT N 8.1 10.00 Fair -- 44.0 41.0 89% 39 NA 30.26 1024.4

Regional Weather Observation


Austin City, Austin Camp Mabry, TX (KATT)

Fair
45.0 F

San Marcos, San Marcos Municipal Airport, TX (KHYI)

Fair
40.0 F

Lago Vista TX, Rusty Allen Airport, TX (KRYW)

Fair
51.0 F

New Braunfels Regional Airport, TX (KBAZ)

Fair
45.0 F

Horseshoe Bay Resort Airpark, TX (KDZB)

Fair
39.0 F

Austin Executive Airport, TX (KEDC)

Sky Obscured with Haze
46.0 F